SILO ALERT LOG
| Silo ID | Alert Type | Alert Message | Silo Type | Points | Depth (mm) | Strength | Temperature (°C) | Humidity (%) | Height (mm) | Volume (㎥) | Weight (t) | Flag | Time |
|---|---|---|---|---|---|---|---|---|---|---|---|---|---|
| DJSAD08 | Humidity | 습도센서 측정값이 80% 초과 | 평 | 637 | 2542 | 4982 | 7.8 | 83.5 | 5037 | 716.774 | 453.145 | 12 | 2024-01-04 00:39:32.000 |
| DJHNR01 | Humidity | 습도센서 측정값이 80% 초과 | 호퍼 | 471 | 4309 | 4902 | 5.3 | 99.9 | 11070 | 472.699 | 298.84 | 13 | 2024-01-04 00:39:32.000 |
| DJSSD05 | Temperature | 온도센서 측정값이 0도 미만 | 평 | 838 | 2552 | 4873 | -45.4 | 43.7 | 5527 | 769.291 | 486.346 | 0 | 2024-01-04 00:39:32.000 |
| DJHNR06 | Humidity | 습도센서 측정값이 80% 초과 | 평 | 481 | 2618 | 2712 | 4 | 81.8 | 5061 | 720.213 | 455.319 | 0 | 2024-01-04 00:39:31.000 |
| DJHNR14 | Temperature | 온도센서 측정값이 0도 미만 | 호퍼 | 468 | 6211 | 517 | -1.7 | 99.9 | 4168 | 35.982 | 22.748 | 13 | 2024-01-04 00:39:31.000 |
| DJHNR14 | Humidity | 습도센서 측정값이 80% 초과 | 호퍼 | 468 | 6211 | 517 | -1.7 | 99.9 | 4168 | 35.982 | 22.748 | 13 | 2024-01-04 00:39:31.000 |
| DJSSD09 | Temperature | 온도센서 측정값이 0도 미만 | 평 | 106 | 2985 | 2866 | -45.4 | 0 | 4694 | 653.411 | 413.086 | 11 | 2024-01-04 00:39:31.000 |
| DJSSD11 | Humidity | 습도센서 측정값이 80% 초과 | 호퍼 | 447 | 7371 | 147 | -1.6 | 83.2 | 3858 | 29.295 | 15.966 | 11 | 2024-01-04 00:39:30.000 |
| DJSSD11 | Temperature | 온도센서 측정값이 0도 미만 | 호퍼 | 447 | 7371 | 147 | -1.6 | 83.2 | 3858 | 29.295 | 15.966 | 11 | 2024-01-04 00:39:30.000 |
| DJHNR12 | Temperature | 온도센서 측정값이 0도 미만 | 호퍼 | 185 | 4683 | 182 | -1.4 | 82.8 | 5696 | 68.931 | 43.578 | 11 | 2024-01-04 00:39:30.000 |
| DJHNR12 | Humidity | 습도센서 측정값이 80% 초과 | 호퍼 | 185 | 4683 | 182 | -1.4 | 82.8 | 5696 | 68.931 | 43.578 | 11 | 2024-01-04 00:39:30.000 |
| DJSAD11 | Humidity | 습도센서 측정값이 80% 초과 | 평 | 293 | 1504 | 13120 | 2.9 | 80.1 | 6075 | 864.424 | 546.489 | 11 | 2024-01-04 00:39:29.000 |
| DJSAD18 | Humidity | 습도센서 측정값이 80% 초과 | 평 | 118 | 1425 | 5632 | 5.4 | 80.8 | 6154 | 612.878 | 387.461 | 11 | 2024-01-04 00:39:29.000 |
| DJSSD12 | Temperature | 온도센서 상태 이상 | 호퍼 | 0 | 11350 | 0 | -999 | -999 | -120 | 0 | 0 | 31 | 2024-01-04 00:39:24.000 |
| DJHNR03 | Temperature | 온도센서 상태 이상 | 호퍼 | 0 | 15500 | 0 | -999 | -999 | -119 | 0 | 0 | 31 | 2024-01-04 00:39:23.000 |
| DJSAD03 | Humidity | 습도센서 측정값이 80% 초과 | 평 | 439 | 1835 | 6191 | 3.6 | 84.5 | 6944 | 287.482 | 181.746 | 0 | 2024-01-03 23:39:40.000 |
| DJSAD01 | Humidity | 습도센서 측정값이 80% 초과 | 평 | 449 | 1483 | 7388 | 2.4 | 88.8 | 7296 | 302.051 | 190.956 | 0 | 2024-01-03 23:39:40.000 |
| DJSAD02 | Humidity | 습도센서 측정값이 80% 초과 | 평 | 473 | 856 | 7347 | 3 | 87.8 | 7923 | 328.007 | 207.366 | 13 | 2024-01-03 23:39:40.000 |
| DJDJD03 | Humidity | 습도센서 측정값이 80% 초과 | 평 | 62 | 4237 | 5163 | 3.6 | 80.3 | 3442 | 417.116 | 263.701 | 0 | 2024-01-03 23:39:40.000 |
| DJHNR01 | Humidity | 습도센서 측정값이 80% 초과 | 호퍼 | 471 | 4308 | 4903 | 5.7 | 99.9 | 11071 | 472.749 | 298.872 | 13 | 2024-01-03 23:39:34.000 |
[첫 페이지] [10191] [10192] [10193] [10194] 10195 [10196] [10197] [10198] [10199] [마지막 페이지]